TimeAKST,TemperatureF,Dew PointF,Humidity,Sea Level PressureIn,VisibilityMPH,Wind Direction,Wind SpeedMPH,Gust SpeedMPH,PrecipitationIn,Events,Conditions,WindDirDegrees,DateUTC
12:53 AM,-17.0,-22.0,78,29.55,10.0,Calm,Calm,-,N/A,,Clear,0,2012-12-27 09:53:00
1:53 AM,-17.0,-23.1,74,29.54,10.0,Calm,Calm,-,N/A,,Clear,0,2012-12-27 10:53:00
3:53 AM,-18.9,-24.0,78,29.54,10.0,Calm,Calm,-,N/A,,Clear,0,2012-12-27 12:53:00
4:53 AM,-18.0,-23.1,78,29.54,10.0,Calm,Calm,-,N/A,,Clear,0,2012-12-27 13:53:00
5:53 AM,-18.0,-24.0,74,29.53,10.0,Calm,Calm,-,N/A,,Clear,0,2012-12-27 14:53:00
6:53 AM,-17.0,-22.0,78,29.54,10.0,Calm,Calm,-,N/A,,Clear,0,2012-12-27 15:53:00
7:53 AM,-17.0,-23.1,74,29.54,10.0,Calm,Calm,-,N/A,,Clear,0,2012-12-27 16:53:00
8:53 AM,-16.1,-22.0,74,29.54,10.0,Calm,Calm,-,N/A,,Partly Cloudy,0,2012-12-27 17:53:00
9:53 AM,-16.1,-20.9,79,29.56,10.0,Calm,Calm,-,N/A,,Scattered Clouds,0,2012-12-27 18:53:00
10:53 AM,-9.9,-16.1,74,29.55,10.0,NNE,3.5,-,N/A,,Scattered Clouds,20,2012-12-27 19:53:00
11:53 AM,-9.9,-15.0,78,29.54,10.0,NNE,3.5,-,N/A,,Scattered Clouds,30,2012-12-27 20:53:00
12:53 PM,-9.0,-14.1,79,29.56,10.0,Calm,Calm,-,N/A,,Mostly Cloudy,0,2012-12-27 21:53:00
1:53 PM,-11.0,-17.0,75,29.54,10.0,NE,3.5,-,N/A,,Scattered Clouds,40,2012-12-27 22:53:00
2:53 PM,-11.0,-16.1,78,29.53,10.0,Calm,Calm,-,N/A,,Scattered Clouds,0,2012-12-27 23:53:00
3:53 PM,-11.9,-18.0,74,29.55,10.0,Calm,Calm,-,N/A,,Scattered Clouds,0,2012-12-28 00:53:00
4:53 PM,-14.1,-18.9,79,29.55,10.0,NNE,8.1,-,N/A,,Scattered Clouds,30,2012-12-28 01:53:00
5:53 PM,-9.9,-15.0,78,29.53,10.0,NNE,3.5,-,N/A,,Partly Cloudy,20,2012-12-28 02:53:00
6:53 PM,-9.0,-14.1,79,29.53,10.0,SSE,4.6,-,N/A,,Partly Cloudy,150,2012-12-28 03:53:00
7:53 PM,-11.9,-17.0,78,29.54,10.0,Calm,Calm,-,N/A,,Partly Cloudy,0,2012-12-28 04:53:00
8:53 PM,-11.9,-16.1,82,29.54,10.0,North,4.6,-,N/A,,Partly Cloudy,10,2012-12-28 05:53:00
9:53 PM,-13.0,-18.0,78,29.55,10.0,Calm,Calm,-,N/A,,Partly Cloudy,0,2012-12-28 06:53:00
10:53 PM,-15.0,-20.9,75,29.56,10.0,NE,3.5,-,N/A,,Partly Cloudy,40,2012-12-28 07:53:00
11:53 PM,-14.1,-18.9,79,29.57,10.0,Calm,Calm,-,N/A,,Partly Cloudy,0,2012-12-28 08:53:00